CW8593 Gava ES current weather conditions

sailwx.info

Wind from 317 at 2 knots gusting 5

Air temperature 26.1° C
Dewpoint 16.9° C

Last reported at 2015-Jul-03 21:42 UTC.
Time now 2015-Jul-03 22:06 UTC

Location: N 41°18' E 001°60'.
View on Google Maps.

See reports from other nearby stations

  
Tides and Currents Weather Stations Pressure Air Temp Water Temp Dewpoint Dewpoint Depression Visibility Wind Speed Wind Dir Waves Ship Positions
date/time (UTC)wind fromknots sea level pressurealtimeterstation pressurevisibilityair tempwater tempwave heightnotes
2015-Jul-03 21:42 317 2 gusting 5 26.1
2015-Jul-03 21:32 326 0 gusting 2 26.1
2015-Jul-03 21:22 325 0 gusting 2 26.1
2015-Jul-03 21:12 325 1 gusting 2 26.1
2015-Jul-03 21:02 325 0 gusting 2 26.1
2015-Jul-03 20:52 325 26.1
2015-Jul-03 20:22 323 1 gusting 2 26.1
2015-Jul-03 20:02 338 0 gusting 5 26.7
2015-Jul-03 19:52 022 1 gusting 5 27.2
2015-Jul-03 19:42 049 2 gusting 5 27.2
2015-Jul-03 19:32 034 1 gusting 6 27.2
2015-Jul-03 19:12 054 2 gusting 5 27.2
2015-Jul-03 18:52 079 4 gusting 6 27.8
2015-Jul-03 18:42 061 4 gusting 6 27.8
2015-Jul-03 18:32 069 4 gusting 6 27.8
2015-Jul-03 18:22 069 3 gusting 6 28.3
2015-Jul-03 18:02 034 0 gusting 5 28.3
2015-Jul-03 17:52 067 1 gusting 6 28.3
2015-Jul-03 17:42 072 3 gusting 7 28.3
2015-Jul-03 17:32 089 4 gusting 6 28.3
2015-Jul-03 17:22 074 2 gusting 7 28.3
2015-Jul-03 17:12 096 4 gusting 10 28.3
2015-Jul-03 17:02 090 5 gusting 10 28.3
2015-Jul-03 16:52 099 5 gusting 10 28.3
2015-Jul-03 16:42 081 6 gusting 10 28.9
2015-Jul-03 16:32 128 5 gusting 10 28.3
2015-Jul-03 15:52 079 7 gusting 13 28.3
2015-Jul-03 15:32 068 6 gusting 13 28.3
2015-Jul-03 15:22 139 5 gusting 12 28.3
2015-Jul-03 14:52 046 5 gusting 11 28.9
2015-Jul-03 14:42 076 6 gusting 10 28.9
2015-Jul-03 14:32 074 3 gusting 8 29.4
2015-Jul-03 14:12 060 5 gusting 11 28.9
2015-Jul-03 13:52 117 6 gusting 11 28.9
2015-Jul-03 13:42 144 6 gusting 12 28.9
2015-Jul-03 13:32 089 3 gusting 10 28.9
2015-Jul-03 13:22 148 4 gusting 10 29.4
2015-Jul-03 13:12 122 6 gusting 11 29.4
2015-Jul-03 13:02 055 4 gusting 8 29.4
2015-Jul-03 12:52 113 5 gusting 10 29.4
2015-Jul-03 12:42 131 4 gusting 7 29.4
2015-Jul-03 12:22 126 4 gusting 8 29.4
2015-Jul-03 12:12 106 4 gusting 10 28.9
2015-Jul-03 12:02 087 4 gusting 8 28.9
2015-Jul-03 11:32 159 4 gusting 11 30.0
2015-Jul-03 11:12 145 6 gusting 12 30.0
2015-Jul-03 11:02 090 6 gusting 11 30.0
2015-Jul-03 10:52 080 4 gusting 10 30.6
2015-Jul-03 10:42 103 4 gusting 10 30.0
2015-Jul-03 10:32 069 2 gusting 10 30.0
2015-Jul-03 10:22 071 5 gusting 8 30.0
2015-Jul-03 10:02 123 4 gusting 10 29.4
2015-Jul-03 09:42 078 2 gusting 11 29.4
2015-Jul-03 08:52 067 4 gusting 8 29.4
2015-Jul-03 08:32 064 3 gusting 6 28.9
2015-Jul-03 08:12 061 3 gusting 7 28.9
2015-Jul-03 08:02 036 5 gusting 8 28.3
2015-Jul-03 07:42 049 2 gusting 7 28.3
2015-Jul-03 07:32 071 4 gusting 7 27.8
2015-Jul-03 07:22 026 2 gusting 7 27.8
2015-Jul-03 07:12 036 2 gusting 5 27.8
2015-Jul-03 06:42 003 2 gusting 6 27.8
2015-Jul-03 06:32 019 1 gusting 6 27.2
2015-Jul-03 06:02 355 2 gusting 5 26.7
2015-Jul-03 05:52 313 0 gusting 4 26.1
2015-Jul-03 05:42 300 26.1
2015-Jul-03 05:32 300 25.6
2015-Jul-03 05:22 300 25.0
2015-Jul-03 05:12 300 0 gusting 1 24.4
2015-Jul-03 04:52 300 0 gusting 2 23.9
2015-Jul-03 04:42 300 24.4
2015-Jul-03 04:32 300 25.0
2015-Jul-03 04:22 300 25.0
2015-Jul-03 04:12 300 24.4
2015-Jul-03 03:52 300 1 gusting 2 25.0
2015-Jul-03 03:22 300 25.0
2015-Jul-03 02:32 321 0 gusting 4 25.6
2015-Jul-03 02:22 350 0 gusting 6 25.6
2015-Jul-03 02:12 306 2 gusting 6 25.6
2015-Jul-03 02:02 321 1 gusting 6 25.6
2015-Jul-03 01:52 306 2 gusting 8 25.6
2015-Jul-03 01:42 292 4 gusting 7 25.6
2015-Jul-03 01:32 299 6 gusting 7 25.6
2015-Jul-03 01:22 300 2 gusting 5 25.6
2015-Jul-03 01:02 303 2 gusting 6 26.1
2015-Jul-03 00:52 313 3 gusting 6 26.1
2015-Jul-03 00:32 288 2 gusting 6 26.1
2015-Jul-03 00:12 305 2 gusting 6 25.6
2015-Jul-03 00:02 306 4 gusting 6 25.6
2015-Jul-02 23:52 314 3 gusting 6 25.6
2015-Jul-02 23:42 303 4 gusting 7 25.6
2015-Jul-02 23:32 304 4 gusting 6 25.6
2015-Jul-02 23:12 321 2 gusting 5 25.6
2015-Jul-02 22:52 330 1 gusting 5 25.6
2015-Jul-02 22:42 325 2 gusting 4 25.0
2015-Jul-02 22:32 327 0 gusting 5 25.0
2015-Jul-02 22:12 332 2 gusting 5 25.0
2015-Jul-02 22:02 306 1 gusting 4 25.0
2015-Jul-02 21:52 302 2 gusting 5 25.0
2015-Jul-02 21:12 336 0 gusting 5 25.6
2015-Jul-02 21:02 345 1 gusting 4 25.6
2015-Jul-02 20:52 346 2 gusting 6 25.6
2015-Jul-02 20:32 355 2 gusting 5 25.6
2015-Jul-02 20:22 348 0 gusting 4 26.1
2015-Jul-02 20:12 049 0 gusting 5 26.1
2015-Jul-02 20:02 003 2 gusting 6 26.1
2015-Jul-02 19:52 062 0 gusting 7 26.1
2015-Jul-02 19:42 039 1 gusting 7 26.1
2015-Jul-02 19:32 051 26.7
2015-Jul-02 19:22 061 1 gusting 13 26.7
2015-Jul-02 18:42 098 6 gusting 13 26.7
2015-Jul-02 18:22 072 5 gusting 13 27.2
2015-Jul-02 18:12 024 5 gusting 10 27.2
2015-Jul-02 18:02 050 6 gusting 13 27.2
2015-Jul-02 17:52 056 8 gusting 13 27.2
2015-Jul-02 17:42 038 1 gusting 10 27.2
2015-Jul-02 17:22 053 4 gusting 12 27.8
2015-Jul-02 17:12 067 5 gusting 7 27.8
2015-Jul-02 17:02 042 2 gusting 8 27.8
2015-Jul-02 16:52 082 5 gusting 7 27.8
2015-Jul-02 16:42 053 2 gusting 8 27.8
2015-Jul-02 16:32 089 6 gusting 10 27.8
2015-Jul-02 16:12 055 4 gusting 10 27.8
2015-Jul-02 16:02 070 6 gusting 11 27.8
2015-Jul-02 15:52 013 1 gusting 8 28.3
2015-Jul-02 15:42 037 4 gusting 8 28.3
2015-Jul-02 15:02 096 6 gusting 10 28.3
2015-Jul-02 14:52 055 6 gusting 10 28.3
2015-Jul-02 14:42 056 5 gusting 7 27.8
2015-Jul-02 14:22 087 4 gusting 12 27.8
2015-Jul-02 14:02 082 5 gusting 12 27.8
2015-Jul-02 13:52 065 5 gusting 10 28.3
2015-Jul-02 13:42 080 2 gusting 8 28.3
2015-Jul-02 13:12 075 8 gusting 13 28.3
2015-Jul-02 13:02 075 5 gusting 13 28.9
2015-Jul-02 12:52 082 7 gusting 12 28.9
2015-Jul-02 12:42 050 2 gusting 10 28.9
2015-Jul-02 12:32 074 6 gusting 11 28.9
2015-Jul-02 12:22 111 6 gusting 11 29.4
2015-Jul-02 12:02 113 6 gusting 10 29.4
2015-Jul-02 11:42 105 3 gusting 8 28.9
2015-Jul-02 11:22 096 4 gusting 11 28.9
2015-Jul-02 10:42 109 5 gusting 10 29.4
2015-Jul-02 10:22 094 3 gusting 12 28.3
2015-Jul-02 10:12 092 6 gusting 11 28.3
2015-Jul-02 10:02 095 4 gusting 11 28.3
2015-Jul-02 09:52 102 5 gusting 10 28.3
2015-Jul-02 09:32 081 4 gusting 10 28.3
2015-Jul-02 09:22 082 6 gusting 13 27.8
2015-Jul-02 09:12 076 5 gusting 11 27.8
2015-Jul-02 08:42 067 6 gusting 13 27.8
2015-Jul-02 08:32 042 5 gusting 12 27.2
2015-Jul-02 08:22 085 5 gusting 11 27.8
2015-Jul-02 07:52 051 3 gusting 7 28.3
2015-Jul-02 07:42 053 0 gusting 8 27.8
2015-Jul-02 07:32 111 5 gusting 11 27.2
2015-Jul-02 06:52 050 4 gusting 7 26.7
2015-Jul-02 06:42 083 0 gusting 7 26.7
2015-Jul-02 06:32 013 2 gusting 8 26.1
2015-Jul-02 06:22 023 1 gusting 6 26.1
2015-Jul-02 05:42 315 1 gusting 5 24.4
2015-Jul-02 05:32 331 2 gusting 5 24.4
2015-Jul-02 05:22 303 2 gusting 6 24.4
2015-Jul-02 05:12 009 0 gusting 6 23.9
2015-Jul-02 05:02 355 2 gusting 6 23.9
2015-Jul-02 04:52 345 2 gusting 5 23.3
2015-Jul-02 04:22 348 2 gusting 5 23.3
2015-Jul-02 03:52 341 0 gusting 4 23.3
2015-Jul-02 03:32 340 0 gusting 2 23.9
2015-Jul-02 02:52 325 0 gusting 2 23.9
2015-Jul-02 02:32 325 1 gusting 4 23.9
2015-Jul-02 02:12 333 0 gusting 4 24.4
2015-Jul-02 02:02 333 1 gusting 2 24.4
2015-Jul-02 01:52 333 24.4
2015-Jul-02 01:42 333 0 gusting 4 24.4
2015-Jul-02 01:22 335 0 gusting 6 24.4
2015-Jul-02 01:12 350 3 gusting 6 24.4
2015-Jul-02 01:02 342 2 gusting 5 24.4
2015-Jul-02 00:52 311 1 gusting 5 24.4
2015-Jul-02 00:42 354 1 gusting 2 25.0
2015-Jul-02 00:22 006 1 gusting 5 25.0
2015-Jul-02 00:02 309 24.4
2015-Jul-01 23:52 315 2 gusting 6 24.4
2015-Jul-01 23:42 332 1 gusting 5 24.4
2015-Jul-01 23:32 298 2 gusting 5 24.4
2015-Jul-01 23:22 019 0 gusting 5 24.4
2015-Jul-01 23:12 021 1 gusting 5 24.4
2015-Jul-01 22:52 301 5 gusting 8 25.0
2015-Jul-01 22:42 011 1 gusting 6 25.6
2015-Jul-01 22:32 028 0 gusting 7 25.6
2015-Jul-01 22:22 357 4 gusting 8 25.6
2015-Jul-01 22:12 064 6 gusting 11 25.6
2015-Jul-01 22:02 056 2 gusting 6 25.6